Regional Weather Roundup
Issued by NWS

Home | Current Version | Previous Version | Graphics & Text | Print | Product List | Glossary On
Versions: 1 2 3 4 5 6 7 8 9 10 11 12 13 14 15 16 17 18 19 20 21 22 23 24 25 26 27 28 29 30 31 32 33 34 35 36 37 38 39 40 41 42 43 44 45 46 47 48 49 50
000
ASUS43 KOAX 210902
RWRNE

WEATHER ROUNDUP FOR NEBRASKA
NATIONAL WEATHER SERVICE OMAHA NE
400 AM CDT FRI JUL 21 2017

NOTES: SATELLITE DATA IS BEING USED TO AUGMENT CLOUD COVER ABOVE
       12000 FEET.
       "FAIR" INDICATES FEW OR NO CLOUDS BELOW 12,000 FEET WITH NO
       SIGNIFICANT WEATHER AND/OR OBSTRUCTIONS TO VISIBILITY.


NEZ001>004-019>022-054>056-211000-
NEBRASKA PANHANDLE

CITY           SKY/WX    TMP DP  RH WIND       PRES   REMARKS
SCOTTSBLUFF    MOCLDY    71  57  61 W6        29.98F
ALLIANCE       CLOUDY    69  58  67 CALM      29.94F
CHADRON        CLOUDY    70  61  73 N3        29.88F
GORDON         FAIR      73  63  69 NW9       29.91S
KIMBALL        CLEAR     67  56  68 NW7       30.07F
SIDNEY         PTCLDY    73  57  57 NW10      30.02F
$$

NEZ057>060-069>072-079>082-211000-
SOUTHWEST NEBRASKA

CITY           SKY/WX    TMP DP  RH WIND       PRES   REMARKS
NORTH PLATTE   CLOUDY    71  68  90 NW5       29.86S
IMPERIAL       PTCLDY    71  66  84 S5        29.90F
LEXINGTON      CLEAR     78  60  54 SW8       29.85S
MCCOOK         CLOUDY    77  59  53 S9        29.86F
OGALLALA       MOCLDY    71  69  91 W3        29.90S
$$

NEZ005>010-023>029-035>040-094-211000-
NORTH CENTRAL NEBRASKA

CITY           SKY/WX    TMP DP  RH WIND       PRES   REMARKS
VALENTINE      CLOUDY    76  70  82 CALM      29.85F
AINSWORTH      CLOUDY    74  74 100 SE3       29.83F FOG
BROKEN BOW       N/A     76  63  64 S8        29.84F
O`NEILL        CLOUDY    77  73  87 SE9       29.81F
ORD            PTCLDY    75  67  76 SE7       29.81F
THEDFORD       PTCLDY    72  71  97 CALM      29.87S FOG
$$

NEZ041-046>049-061>064-073>077-083>087-211000-
SOUTH CENTRAL NEBRASKA

CITY           SKY/WX    TMP DP  RH WIND       PRES   REMARKS
GRAND ISLAND   CLEAR     77  67  71 S13       29.86F
AURORA         CLEAR     77  67  71 S10       29.86F
HASTINGS       CLEAR     78  63  59 S10       29.88F
HEBRON         PTCLDY    79  67  67 S9        29.88F
HOLDREGE       CLEAR     75  60  58 S10       29.86F
KEARNEY        CLEAR     77  62  59 S15       29.86F
YORK           CLEAR     77  68  73 S10       29.87F
$$

NEZ011>018-030>034-042>045-211000-
NORTHEAST NEBRASKA

CITY           SKY/WX    TMP DP  RH WIND       PRES   REMARKS
NORFOLK        CLOUDY    81  66  60 S15       29.82F
ALBION         PTCLDY    79  68  69 S10G17    29.82F
BLAIR          CLOUDY    82  70  66 S12       29.87F
COLUMBUS       CLOUDY    80  68  66 S14G22    29.84F
FREMONT        CLOUDY    83  67  57 S10G16    29.86F
TEKAMAH        CLOUDY    80  72  76 S15G21    29.84F THUNDER
WAYNE          CLOUDY    78  78  99 S6        29.84F
$$

NEZ050>053-065>068-078-088>093-211000-
SOUTHEAST NEBRASKA

CITY           SKY/WX    TMP DP  RH WIND       PRES   REMARKS
LINCOLN        CLEAR     81  68  64 S13       29.86F
OMAHA EPPLEY   CLOUDY    84  71  65 S14       29.87F
BEATRICE       CLEAR     81  70  68 S8        29.88F
FALLS CITY     PTCLDY    81  72  74 S8        29.90F
NEBRASKA CITY  CLEAR     80  74  82 S10       29.89F
PLATTSMOUTH    CLOUDY    80  71  73 S10       29.88F
$$

NEZ044-045-051>053-067-211000-
OMAHA AREA

CITY           SKY/WX    TMP DP  RH WIND       PRES   REMARKS
OMAHA EPPLEY   CLOUDY    84  71  65 S14       29.87F
BLAIR          CLOUDY    82  70  66 S12       29.87F
FREMONT        CLOUDY    83  67  57 S10G16    29.86F
MILLARD        CLOUDY    85  73  65 SE6       29.86F HX  92
OFFUTT AFB     CLOUDY    80  73  78 SE9       29.87F
PLATTSMOUTH    CLOUDY    80  71  73 S10       29.88F
WAHOO          FAIR      79  68  69 S6        29.85F
$$



USA.gov is the U.S. government's official web portal to all federal, state and local government web resources and services.